GSAT-12 1 37746U 11034A 21065.49734714 .00000091 00000-0 00000-0 0 9999 2 37746 0.2162 98.8546 0002273 309.6643 351.7552 0.99996788 24150 PSLV R/B 1 37747U 11034B 21065.28233132 .00001748 00000-0 39457-3 0 9996 2 37747 17.8901 111.8749 5958282 359.8184 0.0970 4.09952138141467